Shelbyville, IN

3:07 PM EDT on July 25, 2016 (GMT -0400)
Shelbyville Municipal

Weather History for KGEZ - September, 2012

Change the Weather History Date:

Sunday, September 23, 2012

  Actual Average Record
Temperature  
Mean Temperature 50 °F 63 °F  
Max Temperature 63 °F 75 °F 95 °F (2010)
Min Temperature 36 °F 50 °F 36 °F (2012)
Degree Days  
Heating Degree Days 15 4  
Month to date heating degree days 83 40  
Since 1 July heating degree days 83 46  
Cooling Degree Days 0 2  
Month to date cooling degree days 98 83  
Year to date cooling degree days 1401 889  
Moisture  
Dew Point 37 °F    
Average Humidity 65    
Maximum Humidity 92    
Minimum Humidity 37    
Precipitation  
Precipitation 0.00 in 0.10 in 0.81 in (2001)
Month to date precipitation 5.60 2.43  
Year to date precipitation 22.32 32.71  
Sea Level Pressure  
Sea Level Pressure 30.21 in    
Wind  
Wind Speed 4 mph (West)    
Max Wind Speed 15 mph    
Max Gust Speed 20 mph    
Visibility 10 miles    
Events      
T = Trace of Precipitation, MM = Missing Value Source: NWS Daily Summary

Daily Weather History Graph

Daily Weather History Graph

Search for Another Location

Airport or City:

Trip Planner

Search our weather history database for the weather conditions in past years. The results will help you decide how hot, cold, wet, or windy it might be!

Date:

Astronomy

Sep. 23, 2012 Rise Set
Actual Time 7:32 AM EDT 7:37 PM EDT
Civil Twilight 7:05 AM EDT 8:04 PM EDT
Nautical Twilight 6:33 AM EDT 8:36 PM EDT
Astronomical Twilight 6:02 AM EDT 9:07 PM EDT
Moon 3:37 PM EDT (9/23) 12:44 AM EDT (9/23)
Length of Visible Light 12h 59m
Length of Day
12h 05m
First Quarter, 60% of the Moon is Illuminated
Sep 23
First Quarter
Sep 29
Full
Oct 8
Last Quarter
Oct 15
New
Oct 21
First Quarter

Hourly Weather History & Observations

Time (EDT) Temp. Windchill Dew Point Humidity Pressure Visibility Wind Dir Wind Speed Gust Speed Precip Events Conditions
12:53 AM 39.9 °F - 36.0 °F 86% 30.16 in 10.0 mi Calm Calm - N/A   Clear
1:53 AM 39.9 °F - 37.0 °F 89% 30.16 in 10.0 mi Calm Calm - N/A   Clear
2:53 AM 41.0 °F - 37.0 °F 86% 30.17 in 10.0 mi Calm Calm - N/A   Clear
3:53 AM 37.9 °F - 36.0 °F 93% 30.17 in 10.0 mi Calm Calm - N/A   Clear
4:53 AM 39.0 °F - 36.0 °F 89% 30.18 in 10.0 mi Calm Calm - N/A   Clear
5:53 AM 37.0 °F - 35.1 °F 93% 30.19 in 10.0 mi Calm Calm - N/A   Clear
6:53 AM 37.0 °F - 35.1 °F 93% 30.21 in 10.0 mi Calm Calm - N/A   Clear
7:53 AM 37.0 °F - 35.1 °F 93% 30.22 in 10.0 mi Calm Calm - N/A   Clear
8:53 AM 43.0 °F - 39.9 °F 89% 30.24 in 10.0 mi Calm Calm - N/A   Clear
9:53 AM 51.1 °F - 42.1 °F 71% 30.25 in 10.0 mi Calm Calm - N/A   Clear
10:53 AM 55.0 °F - 42.1 °F 62% 30.25 in 10.0 mi Calm Calm - N/A   Clear
11:53 AM 59.0 °F - 37.9 °F 46% 30.24 in 10.0 mi WNW 11.5 mph 17.3 mph N/A   Scattered Clouds
12:53 PM 57.9 °F - 37.0 °F 46% 30.24 in 10.0 mi WNW 8.1 mph - N/A   Scattered Clouds
1:53 PM 57.9 °F - 37.9 °F 47% 30.23 in 10.0 mi WNW 12.7 mph - N/A   Mostly Cloudy
2:53 PM 61.0 °F - 37.9 °F 42% 30.22 in 10.0 mi WNW 11.5 mph - N/A   Partly Cloudy
3:53 PM 60.1 °F - 36.0 °F 41% 30.22 in 10.0 mi WNW 11.5 mph - N/A   Overcast
4:53 PM 60.1 °F - 35.1 °F 39% 30.21 in 10.0 mi West 10.4 mph - N/A   Mostly Cloudy
5:53 PM 61.0 °F - 35.1 °F 38% 30.21 in 10.0 mi WNW 9.2 mph - N/A   Mostly Cloudy
6:53 PM 59.0 °F - 34.0 °F 39% 30.20 in 10.0 mi NW 6.9 mph - N/A   Partly Cloudy
7:53 PM 52.0 °F - 37.9 °F 59% 30.21 in 10.0 mi West 3.5 mph - N/A   Partly Cloudy
8:53 PM 53.1 °F - 37.0 °F 55% 30.22 in 10.0 mi Calm Calm - N/A   Partly Cloudy
9:53 PM 48.9 °F - 37.0 °F 64% 30.23 in 10.0 mi SSW 3.5 mph - N/A   Partly Cloudy
10:53 PM 45.0 °F 43.5 °F 37.9 °F 76% 30.23 in 10.0 mi SSW 3.5 mph - N/A   Unknown
11:53 PM 44.1 °F - 37.9 °F 79% 30.23 in 10.0 mi Calm Calm - N/A   Unknown